Flag for Germany Weather past 2 weeks in Schwäbisch Gmünd, Baden-Württemberg, Germany

Now
60 °F

Overcast.


Feels Like: 60 °F
Forecast: 54 / 66 °F
Wind: 5 mph from Northwest

Location: Stoetten

Current Time: Jul 28, 2015 at 8:43:10 PM

Latest Report: Jul 28, 2015 at 8:00 PM


Visibility: 37 mi

Pressure: 29.83 "Hg

Humidity: 58%

Dew point: 46 °F

Location of Schwäbisch GmündLocation

Historic Weather in Schwäbisch Gmünd — Graph

°F

Schwäbisch Gmünd temperature yesterday

Maximum temperature yesterday: 65 °F (at 7:00 PM)
Minimum temperature yesterday: 55 °F (at 7:00 AM)
Average temperature yesterday: 60 °F

Past Weeks' High & Low Weather Summary

 TemperatureHumidityPressure
High89 °F (Jul 22, 2:00 PM)100% (Jul 23, 4:00 AM)30.14 "Hg (Jul 23, 4:00 AM)
Low46 °F (Jul 26, 5:00 AM)28% (Jul 17, 12:00 PM)29.67 "Hg (Jul 24, 7:00 PM)
Average68 °F64%29.93 "Hg
* Reported Jul 13 7:00 PM — Jul 28 7:00 PM, Schwäbisch Gmünd, Weather by CustomWeather, © 2015

Note: Actual official high and low records may vary slightly from our data, if they occured in-between our weather recording intervals... More about our weather records

Advertising

Schwäbisch Gmünd weather history for previous 24 hours

 ConditionsComfort  
Time TempWeatherWind HumidityBarometerVisibility
7:00 PM
Tue, Jul 28
62 °FOvercast.7 mph54%29.79 "Hg28 mi
6:00 PM63 °FOvercast.9 mph54%29.78 "Hg13 mi
5:00 PM64 °FPartly sunny.9 mph51%29.78 "Hg47 mi
4:00 PM65 °FPartly sunny.N/A52%29.77 "Hg47 mi
3:00 PM67 °FOvercast.9 mph49%29.77 "Hg47 mi
2:00 PM64 °FOvercast.10 mph54%29.79 "Hg47 mi
1:00 PM63 °FOvercast.12 mph53%29.80 "Hg47 mi
12:00 PM61 °FOvercast.12 mph57%29.81 "Hg47 mi
11:00 AM59 °FOvercast.13 mph64%29.83 "Hg47 mi
10:00 AM60 °FOvercast.12 mph65%29.81 "Hg43 mi
9:00 AM60 °FOvercast.12 mph64%29.80 "Hg47 mi
8:00 AM59 °FOvercast.12 mph65%29.80 "Hg47 mi
7:00 AM59 °FOvercast.10 mph69%29.78 "Hg47 mi
6:00 AM58 °FOvercast.6 mph70%29.78 "Hg47 mi
5:00 AM60 °FOvercast.7 mph65%29.77 "Hg43 mi
4:00 AM60 °FOvercast.9 mph63%29.78 "Hg43 mi
3:00 AM57 °FOvercast.6 mph69%29.80 "Hg43 mi
2:00 AM60 °FOvercast.8 mph60%29.79 "Hg43 mi
1:00 AM59 °FOvercast.8 mph61%29.80 "Hg43 mi
11:00 PM
Mon, Jul 27
58 °FPassing clouds.6 mph60%29.81 "Hg43 mi
10:00 PM61 °FPassing clouds.10 mph54%29.80 "Hg43 mi
9:00 PM61 °FSunny.8 mph55%29.80 "Hg43 mi
8:00 PM63 °FScattered clouds.12 mph53%29.76 "Hg34 mi
Weather by CustomWeather, © 2015

See weather overviewHow to use our weather pages